Location: Newark
(33.4133°N, 82.3847°W)
Time: 11:19:49
(UTC+00:00)

Hubble Space Telescope - Pass Details

Date: 02 February 2020
Orbit: 536 x 540 km, 28.5° (Epoch: 25 February)

Event Time Altitude Azimuth Distance (km) Brightness Sun altitude
Exits shadow 09:50:46 16° 122° (ESE) 1,420 3.4 -32.4°
Drops below altitude 10° 09:52:00 10° 109° (ESE) 1,777 4.2 -32.2°
Sets 09:54:32 0° 95° (E) 2,669 5.5 -31.6°
